Wind_Speed
11 11 11 11 12 13 13 15 14 14 12 11 10 9 9 8 6 6 7 7 7 7 6 7 7 8 8 7 7 7 7 6 6 6 5 4 4 5 5 5 4 4 4 4 3 2 2 2 2
11 11 11 11 12 12 14 15 15 14 13 12 11 10 10 9 8 8 7 7 7 7 7 7 8 8 8 7 7 6 6 6 6 6 6 5 5 5 5 5 4 4 4 3 3 3 2 2 2
11 11 12 12 12 13 14 15 15 14 13 12 12 11 11 10 9 8 7 7 7 7 7 7 8 8 8 7 6 6 6 6 6 6 7 6 6 5 5 5 5 4 4 3 3 3 2 2 2
10 11 11 12 13 13 14 15 15 14 14 13 12 12 11 11 10 8 8 7 6 7 8 8 8 8 8 7 6 6 6 6 6 6 6 6 6 5 5 5 4 4 4 4 3 3 3 2 1
10 11 12 12 13 13 13 14 14 14 14 13 13 12 11 10 10 8 8 7 7 7 8 8 8 7 8 7 7 6 6 5 5 5 5 5 5 5 5 5 4 4 4 5 4 4 3 3 2
9 10 11 12 12 13 13 14 14 14 14 14 14 13 12 11 10 9 8 8 8 8 8 9 8 8 7 7 7 6 5 5 4 5 5 4 4 4 5 4 4 4 3 3 3 3 3 3 3
8 9 10 11 12 12 13 14 14 14 13 14 14 13 12 11 11 10 9 8 9 9 8 8 8 8 8 7 7 7 6 5 5 5 5 5 4 4 3 3 2 3 3 3 3 3 3 3 2
8 8 10 11 11 11 12 13 13 14 14 13 13 13 12 11 11 10 10 10 10 9 8 8 8 8 7 8 7 6 5 5 5 5 5 5 5 4 3 2 1 1 2 2 2 3 3 3 3
8 8 9 10 10 10 11 12 13 14 13 13 12 12 12 11 11 11 10 10 9 9 8 7 8 7 7 7 7 6 5 5 4 5 4 5 4 4 3 2 2 2 2 2 2 3 3 3 3
8 8 9 9 9 10 11 12 13 13 13 12 12 12 12 11 10 10 9 9 9 8 8 8 7 7 7 7 6 6 5 4 4 5 4 4 4 4 3 3 2 2 2 3 4 3 3 3 3
8 8 9 10 10 10 11 11 11 11 12 11 12 11 11 10 9 9 8 8 8 8 8 7 7 6 6 6 5 5 5 4 4 4 4 3 3 3 3 3 3 3 3 3 4 4 3 3 2
8 7 9 10 10 11 11 10 10 11 11 11 11 11 11 10 8 8 7 7 7 7 7 6 6 6 5 5 5 5 4 4 3 3 2 2 2 2 2 2 2 3 3 4 4 4 3 2 2
6 6 9 9 10 10 10 9 9 10 11 11 11 11 11 9 7 7 7 7 6 6 6 6 6 5 4 4 4 4 4 4 4 3 2 2 1 1 2 2 2 3 4 4 5 4 2 2 2
5 6 7 8 7 7 8 8 8 9 10 10 11 10 10 9 8 8 8 7 6 6 5 5 5 5 3 3 3 3 3 3 3 2 2 2 2 2 1 2 2 3 4 4 4 3 2 3 3
6 6 5 6 7 6 7 6 6 7 9 9 9 9 9 8 8 8 8 7 7 7 6 6 5 5 4 3 3 3 3 3 2 2 2 2 2 2 2 2 3 4 4 4 4 4 3 3 3
5 5 4 4 4 5 5 5 5 5 6 6 7 7 7 7 7 7 7 6 6 6 6 4 4 5 4 3 4 4 3 3 3 3 3 3 2 2 2 3 4 4 5 5 4 4 4 4 5
6 5 3 2 2 2 3 4 3 3 4 5 5 6 6 6 6 5 5 5 5 5 5 4 3 3 3 3 3 3 3 3 3 4 4 3 3 3 4 4 4 5 5 5 5 5 5 6 6
7 6 4 2 1 1 0 1 1 1 3 4 4 5 5 5 4 4 4 4 4 4 3 3 3 3 2 2 2 2 3 3 4 4 4 4 4 5 5 5 5 5 5 5 6 6 7 7 8
9 8 6 4 3 2 2 1 0 2 3 4 4 4 4 4 3 3 3 3 3 3 3 2 1 2 1 2 2 2 3 3 3 4 4 4 5 5 6 6 5 5 6 6 6 6 7 8 9
10 9 8 6 5 5 4 3 2 3 3 4 4 4 4 3 2 2 2 3 3 3 3 3 2 2 2 2 2 2 3 3 3 3 3 3 4 5 6 6 6 6 7 8 8 8 9 9 10
11 10 10 9 8 8 6 5 4 4 3 3 4 5 3 2 2 2 3 3 2 3 4 4 3 3 2 2 3 3 3 4 4 4 4 4 5 6 6 7 7 8 8 8 9 9 9 10 10
11 12 12 11 10 10 8 6 5 5 4 5 5 5 5 4 4 4 3 3 3 3 3 4 4 3 2 3 3 4 4 5 4 5 5 6 6 7 7 8 8 8 9 9 10 10 10 10 11
12 13 13 12 12 12 10 9 7 6 6 6 7 6 6 6 5 5 5 4 4 4 4 5 5 4 4 4 5 5 5 5 5 6 6 7 7 8 8 9 9 9 10 10 11 10 10 11 12
13 13 14 14 14 13 12 12 8 8 8 7 7 7 7 7 8 7 7 6 5 5 5 6 6 6 5 6 6 6 6 5 6 7 7 7 8 8 9 10 10 11 11 11 12 11 11 12 12
14 14 14 14 14 14 13 13 11 10 9 8 8 9 9 8 9 9 9 8 7 6 7 8 8 7 6 6 7 7 7 7 8 8 8 8 9 9 10 11 11 11 12 12 12 12 12 12 13
14 15 15 15 15 14 14 14 12 12 11 10 10 10 9 9 9 10 9 9 8 7 8 9 9 7 6 7 7 8 8 8 9 9 9 10 11 12 12 12 12 12 12 12 12 12 13 13 14
15 15 16 17 17 17 17 15 14 13 12 11 11 11 11 10 11 10 9 10 10 10 9 10 10 8 8 7 8 8 9 9 10 10 11 12 13 13 13 13 13 13 13 14 14 14 14 14 15
18 17 18 19 19 19 19 18 16 15 14 13 12 12 12 11 12 12 10 9 10 10 11 10 10 10 9 9 9 9 9 10 11 11 12 12 13 13 14 14 14 14 14 15 15 15 15 16 16
20 20 20 20 20 21 20 19 17 16 15 14 13 13 13 12 11 11 10 10 10 11 11 11 10 10 10 10 10 11 11 11 12 13 13 13 14 14 15 16 15 15 16 16 16 16 17 17 18
22 22 21 21 21 22 22 20 17 17 17 16 15 14 14 13 12 12 12 11 11 11 12 12 11 11 11 11 12 12 13 13 13 14 15 16 16 16 16 16 16 16 17 17 18 18 18 19 20
Wind_Direction
82 76 73 78 77 75 70 67 66 62 59 58 56 55 58 60 57 67 80 86 85 90 95 105 108 104 100 96 94 91 93 90 81 80 80 87 102 100 90 79 66 64 73 79 75 68 66 63 49
85 78 76 79 77 73 67 63 60 58 56 55 55 58 58 59 65 79 84 85 84 87 93 103 107 103 98 97 97 95 92 87 82 80 75 85 107 101 86 75 62 58 59 67 70 64 67 63 48
83 77 77 78 77 72 66 62 59 59 57 55 54 56 56 59 71 78 85 88 87 87 94 100 102 100 98 97 98 99 92 85 82 80 77 81 91 88 80 70 62 58 54 61 60 54 52 51 35
84 77 77 79 76 73 67 63 61 60 58 55 54 56 57 58 65 77 86 88 92 94 97 100 102 100 98 94 96 99 97 86 78 77 75 79 81 76 68 67 65 61 60 59 46 38 37 39 17
87 82 78 79 75 73 70 67 65 60 56 54 57 57 58 58 61 75 85 88 97 101 99 99 102 99 98 95 92 95 93 85 78 77 76 74 74 72 77 71 65 61 56 50 42 36 32 21 6
84 84 81 76 77 76 73 70 69 63 58 59 59 57 57 58 59 70 85 96 104 103 100 97 99 99 95 91 87 87 89 82 78 79 79 85 90 89 86 73 71 56 48 40 36 21 24 21 16
90 89 80 76 80 78 74 71 67 65 60 58 59 59 56 56 60 69 79 97 106 102 104 99 96 96 95 93 90 88 88 83 81 79 83 86 90 91 84 76 67 55 41 33 23 17 14 10 13
95 92 82 79 81 76 73 71 66 63 60 58 58 60 57 57 59 67 77 91 101 101 100 99 97 97 99 98 94 89 85 85 82 80 83 85 83 82 80 62 64 38 25 17 11 7 4 358 354
97 93 87 81 81 77 71 67 66 64 62 60 60 62 61 58 58 67 79 90 94 96 97 99 100 99 101 101 94 91 88 82 83 83 81 88 88 82 74 66 51 32 26 15 359 352 351 353 353
99 90 89 88 84 80 72 67 65 63 61 58 58 60 60 58 59 65 76 92 98 100 99 97 99 99 101 102 94 89 88 88 86 85 84 87 84 82 76 65 61 47 20 3 353 334 330 328 333
101 90 85 87 83 78 73 70 69 64 61 59 57 59 59 58 58 65 75 83 92 96 96 92 97 95 99 97 91 86 86 86 94 93 87 80 73 72 67 62 59 36 9 358 353 342 323 314 311
108 99 92 90 83 78 72 71 71 66 61 59 55 55 58 59 59 64 70 75 81 90 97 96 93 96 97 92 84 86 88 85 90 95 83 74 71 63 60 54 45 24 6 358 347 339 323 301 301
115 105 101 93 85 80 72 67 66 59 58 58 52 49 51 54 58 66 70 74 78 88 94 101 99 99 96 95 89 86 86 89 81 74 76 77 62 26 29 26 22 9 3 357 351 345 326 305 311
121 114 110 102 91 80 66 61 59 55 50 50 47 44 44 47 55 61 63 77 88 99 109 109 101 99 96 93 96 94 94 91 79 66 78 72 49 24 16 10 351 345 349 350 349 346 331 306 298
133 124 121 107 93 72 61 61 56 51 48 48 48 44 39 44 54 61 61 71 85 94 103 103 92 86 87 86 82 82 81 68 47 39 53 48 33 36 25 10 353 343 334 331 332 334 329 315 297
148 141 136 114 95 68 56 63 52 41 39 38 40 41 40 44 53 60 61 64 72 87 99 97 83 79 76 67 63 56 54 38 26 31 33 24 12 8 346 341 333 327 325 327 328 329 324 314 301
181 172 157 138 90 71 60 58 43 33 33 34 34 35 33 38 48 55 56 59 63 72 88 95 92 86 71 58 45 40 38 24 20 28 20 9 359 348 337 334 328 321 316 314 315 315 313 308 302
204 201 203 210 236 263 65 69 35 6 12 13 15 20 17 18 27 37 40 51 53 58 66 78 80 76 70 51 25 23 25 15 10 4 357 346 344 339 335 333 330 323 313 309 306 303 308 307 303
220 217 220 226 242 257 248 227 228 314 330 348 352 1 353 357 359 5 9 10 24 37 39 47 66 39 44 7 352 2 4 2 353 340 336 335 337 334 337 332 328 323 315 305 298 297 303 303 301
229 224 225 232 245 254 258 261 282 308 311 328 332 329 329 335 327 328 337 340 355 20 15 7 348 332 341 335 326 331 337 336 326 323 325 326 332 333 332 329 321 319 319 315 305 299 300 299 297
238 233 230 238 246 257 261 266 278 296 290 306 316 315 299 298 293 297 314 329 350 359 357 351 352 337 319 310 311 308 312 320 316 311 307 308 314 315 316 318 318 319 313 309 305 300 297 293 293
241 237 240 242 249 258 267 273 277 282 292 301 310 309 287 269 273 281 287 300 316 331 336 334 334 332 320 315 307 300 291 303 303 303 303 301 303 303 308 312 314 314 310 306 303 299 296 293 292
245 244 243 244 252 263 268 273 275 282 290 299 300 299 279 266 266 271 275 287 297 306 317 322 313 311 314 309 301 293 291 298 294 295 299 300 299 302 306 309 311 310 310 308 305 300 298 295 293
245 247 247 250 258 263 267 271 272 280 286 293 292 286 277 264 261 263 270 278 281 291 300 307 299 298 299 296 291 285 285 293 296 296 296 300 303 303 305 306 308 308 308 306 302 299 297 298 296
243 248 250 256 260 263 265 270 275 276 276 279 283 284 283 268 258 261 266 270 273 279 288 294 293 287 285 284 287 287 280 285 295 297 296 298 302 302 304 303 303 304 306 306 301 298 296 297 298
244 248 253 260 265 266 265 269 273 273 274 278 283 279 279 269 261 266 272 274 271 272 280 285 283 279 275 279 282 285 288 288 288 290 294 296 298 299 301 303 303 301 302 304 303 298 298 297 297
246 250 256 263 264 265 266 267 269 272 275 280 282 278 279 270 261 265 274 272 268 274 278 283 278 276 279 279 281 284 287 289 290 288 289 293 298 302 303 303 302 301 301 302 301 299 298 298 298
248 253 258 262 265 266 264 265 271 274 276 275 277 277 274 271 267 267 272 280 272 269 275 276 275 272 278 280 281 285 288 289 293 292 292 294 296 299 302 302 301 300 300 300 300 298 299 300 298
249 252 256 262 266 266 267 268 272 274 274 276 275 274 274 273 269 268 269 274 274 271 271 279 281 279 277 280 280 282 283 284 289 291 292 293 296 298 298 299 300 299 298 299 299 299 298 299 299
252 255 257 261 265 266 268 270 270 271 271 273 276 276 275 268 264 266 271 271 272 269 271 279 275 273 276 281 281 281 283 285 288 292 293 293 295 298 297 297 298 297 296 296 296 296 297 299 299
Height
5882 5882 5883 5883 5883 5882 5880 5880 5879 5878 5878 5877 5877 5876 5876 5876 5877 5879 5876 5875 5876 5877 5878 5878 5879 5879 5879 5880 5881 5881 5881 5882 5882 5882 5882 5881 5883 5885 5886 5887 5888 5888 5889 5889 5889 5890 5890 5890 5891
5884 5885 5885 5885 5884 5883 5882 5881 5880 5880 5879 5879 5878 5877 5877 5876 5877 5877 5876 5877 5877 5878 5879 5879 5879 5880 5880 5881 5881 5882 5882 5882 5883 5882 5881 5879 5882 5884 5887 5888 5888 5888 5889 5889 5890 5890 5891 5891 5891
5886 5887 5887 5886 5885 5884 5884 5882 5882 5881 5881 5880 5879 5878 5878 5878 5877 5877 5878 5878 5878 5879 5880 5880 5880 5881 5882 5882 5883 5883 5883 5884 5884 5883 5882 5882 5883 5886 5887 5888 5888 5889 5889 5890 5890 5891 5891 5891 5891
5888 5889 5889 5888 5887 5886 5885 5884 5884 5883 5883 5882 5881 5880 5880 5879 5879 5878 5878 5879 5879 5880 5880 5881 5881 5882 5883 5883 5884 5884 5885 5885 5885 5885 5885 5885 5886 5887 5888 5889 5889 5889 5889 5890 5890 5890 5891 5891 5891
5890 5891 5890 5889 5889 5888 5887 5886 5886 5885 5884 5883 5883 5882 5881 5881 5879 5878 5878 5878 5879 5881 5881 5882 5882 5883 5884 5884 5884 5885 5886 5886 5886 5887 5887 5887 5888 5888 5889 5889 5889 5890 5890 5890 5890 5890 5891 5890 5891
5892 5892 5892 5891 5891 5890 5889 5888 5887 5887 5886 5885 5885 5884 5883 5882 5881 5879 5878 5878 5879 5881 5882 5883 5883 5884 5884 5885 5885 5886 5886 5887 5887 5888 5888 5888 5889 5889 5889 5890 5891 5891 5891 5891 5891 5891 5891 5890 5890
5894 5894 5893 5893 5892 5891 5891 5890 5889 5889 5888 5887 5886 5886 5885 5884 5882 5880 5878 5877 5879 5881 5883 5884 5884 5885 5885 5886 5886 5887 5887 5888 5888 5888 5888 5889 5889 5890 5890 5891 5891 5891 5891 5891 5891 5891 5890 5890 5890
5895 5896 5895 5894 5894 5893 5893 5891 5891 5891 5890 5890 5889 5888 5887 5886 5884 5882 5880 5879 5881 5883 5884 5885 5885 5886 5887 5887 5887 5888 5888 5888 5889 5889 5889 5889 5890 5890 5891 5891 5891 5891 5891 5891 5890 5890 5890 5890 5890
5896 5897 5896 5896 5895 5895 5895 5893 5893 5893 5892 5891 5890 5890 5889 5888 5886 5885 5883 5883 5884 5884 5885 5886 5887 5887 5887 5888 5888 5889 5889 5889 5889 5889 5890 5890 5890 5891 5891 5891 5891 5891 5891 5890 5890 5890 5890 5890 5889
5897 5897 5897 5897 5897 5897 5896 5895 5895 5894 5894 5893 5892 5892 5891 5890 5889 5887 5886 5886 5886 5886 5887 5887 5888 5888 5888 5889 5889 5889 5890 5890 5890 5890 5890 5891 5891 5891 5891 5891 5891 5890 5890 5890 5889 5889 5889 5889 5889
5898 5898 5899 5899 5898 5898 5898 5897 5897 5896 5896 5895 5894 5893 5892 5891 5891 5890 5889 5888 5888 5888 5888 5888 5889 5889 5889 5890 5890 5890 5890 5891 5891 5891 5891 5891 5891 5891 5891 5891 5891 5890 5890 5889 5888 5887 5887 5888 5888
5899 5900 5899 5900 5900 5899 5899 5899 5899 5898 5898 5897 5896 5895 5894 5893 5892 5891 5891 5890 5890 5889 5889 5890 5890 5890 5890 5890 5891 5891 5891 5891 5891 5891 5891 5891 5892 5891 5891 5891 5891 5890 5890 5889 5888 5886 5886 5887 5888
5900 5900 5901 5901 5901 5900 5900 5900 5900 5899 5899 5898 5897 5896 5895 5895 5893 5892 5892 5891 5891 5890 5890 5891 5891 5891 5891 5891 5891 5892 5891 5891 5892 5891 5891 5891 5891 5891 5891 5891 5890 5890 5889 5888 5887 5886 5886 5887 5887
5901 5901 5901 5902 5902 5901 5901 5901 5901 5901 5900 5899 5899 5898 5897 5896 5895 5894 5893 5892 5892 5892 5892 5892 5892 5892 5892 5892 5892 5892 5892 5892 5892 5891 5891 5891 5891 5891 5891 5891 5890 5890 5889 5888 5887 5887 5887 5887 5887
5901 5903 5903 5903 5902 5902 5903 5903 5902 5901 5901 5900 5900 5899 5899 5897 5896 5896 5895 5894 5893 5893 5893 5893 5893 5893 5893 5892 5892 5892 5891 5892 5892 5891 5891 5891 5891 5891 5891 5890 5890 5889 5889 5888 5888 5887 5887 5886 5886
5902 5903 5903 5903 5903 5903 5904 5903 5903 5902 5902 5901 5901 5900 5899 5899 5898 5897 5896 5895 5895 5894 5894 5894 5894 5893 5893 5892 5892 5892 5892 5892 5892 5891 5891 5891 5891 5890 5890 5890 5889 5889 5888 5888 5887 5887 5886 5886 5885
5901 5902 5903 5904 5903 5903 5903 5903 5903 5902 5902 5901 5901 5900 5900 5899 5898 5897 5897 5896 5896 5895 5894 5894 5894 5893 5893 5893 5893 5893 5892 5892 5892 5891 5891 5891 5891 5890 5890 5889 5888 5888 5887 5887 5886 5886 5885 5885 5884
5901 5902 5902 5903 5903 5903 5903 5903 5903 5903 5902 5902 5901 5901 5900 5899 5899 5898 5898 5897 5896 5896 5895 5894 5894 5893 5893 5893 5893 5893 5892 5892 5891 5891 5891 5890 5890 5890 5889 5888 5888 5886 5886 5885 5885 5884 5884 5883 5883
5900 5901 5902 5902 5902 5903 5903 5903 5903 5903 5902 5902 5901 5900 5900 5899 5899 5898 5898 5897 5897 5896 5895 5895 5894 5894 5893 5893 5892 5892 5892 5892 5891 5891 5890 5890 5890 5889 5888 5888 5886 5885 5884 5884 5883 5883 5882 5881 5881
5899 5900 5901 5902 5902 5902 5902 5902 5902 5902 5902 5901 5901 5900 5900 5899 5899 5899 5898 5897 5897 5896 5895 5895 5894 5893 5893 5893 5892 5892 5891 5891 5891 5890 5890 5889 5889 5888 5888 5886 5885 5884 5883 5882 5881 5881 5880 5879 5878
5897 5899 5900 5900 5901 5901 5901 5902 5902 5901 5901 5901 5900 5900 5899 5899 5898 5898 5898 5897 5896 5896 5895 5894 5893 5892 5892 5892 5892 5891 5891 5890 5890 5889 5889 5889 5888 5887 5886 5885 5884 5883 5882 5881 5880 5879 5878 5877 5876
5895 5897 5898 5898 5899 5899 5901 5901 5901 5900 5900 5900 5900 5899 5898 5898 5897 5897 5897 5896 5896 5895 5894 5893 5892 5891 5891 5891 5890 5890 5889 5889 5888 5888 5887 5887 5886 5886 5885 5884 5882 5881 5880 5879 5878 5876 5875 5874 5873
5893 5894 5895 5896 5897 5898 5898 5899 5900 5899 5899 5899 5898 5898 5897 5896 5896 5896 5896 5895 5895 5894 5893 5892 5891 5890 5890 5890 5889 5888 5888 5888 5887 5887 5886 5885 5885 5884 5883 5882 5880 5879 5878 5877 5876 5874 5873 5872 5871
5891 5892 5893 5893 5894 5896 5896 5897 5898 5898 5898 5898 5897 5896 5895 5894 5895 5894 5894 5893 5893 5892 5891 5891 5890 5889 5888 5887 5887 5886 5886 5886 5886 5885 5884 5884 5883 5882 5881 5880 5878 5877 5876 5875 5873 5872 5871 5869 5868
5889 5890 5891 5891 5892 5893 5894 5894 5896 5896 5896 5895 5895 5894 5893 5893 5892 5892 5891 5891 5890 5890 5889 5888 5887 5886 5886 5886 5885 5884 5884 5884 5884 5883 5882 5882 5881 5880 5879 5877 5876 5875 5873 5872 5870 5869 5868 5867 5866
5886 5887 5889 5889 5889 5890 5891 5891 5893 5893 5893 5893 5892 5891 5891 5891 5890 5889 5889 5888 5888 5888 5887 5886 5885 5884 5884 5883 5883 5882 5882 5881 5881 5881 5880 5879 5878 5877 5876 5875 5874 5872 5871 5869 5868 5866 5865 5864 5863
5883 5884 5885 5886 5886 5887 5888 5889 5890 5890 5890 5890 5890 5889 5888 5888 5887 5887 5887 5886 5886 5886 5885 5884 5883 5882 5882 5881 5881 5880 5879 5879 5878 5878 5877 5877 5876 5874 5873 5872 5871 5869 5868 5866 5865 5863 5862 5861 5860
5880 5881 5881 5882 5882 5882 5884 5885 5886 5887 5887 5887 5887 5886 5885 5885 5885 5884 5884 5884 5883 5883 5882 5881 5880 5880 5880 5879 5879 5878 5877 5876 5876 5875 5874 5873 5872 5871 5870 5869 5867 5866 5865 5863 5862 5860 5859 5857 5856
5876 5877 5877 5878 5878 5879 5879 5883 5883 5883 5883 5883 5883 5883 5882 5882 5882 5882 5882 5881 5880 5880 5879 5879 5878 5877 5877 5876 5876 5875 5874 5874 5873 5872 5871 5870 5869 5868 5867 5865 5864 5862 5861 5860 5858 5857 5855 5854 5852
5871 5872 5873 5874 5874 5874 5875 5880 5879 5879 5879 5879 5879 5880 5879 5879 5879 5879 5879 5878 5878 5877 5877 5876 5875 5875 5874 5873 5873 5872 5871 5871 5870 5869 5868 5867 5866 5864 5863 5861 5860 5859 5857 5856 5854 5853 5851 5850 5848